User: anonymous   Login
Location: ??
(31.9467°N, 34.8903°E)
Time: 22:50:43
(UTC+00:00)
Language:

Cosmos 1812 Rocket - Orbit

View from above orbital plane
View from above orbital plane
View from above satellite
View from above satellite

Ground track
Ground track

The orbit data is extracted from the following two-line orbital elements,

1 17296U 87003B   21017.85895876  .00000065  00000-0  50254-5 0  9992
2 17296  82.5282 239.0052 0018087 216.2587 143.7403 14.83317387816316
Epoch (UTC): 17 January 2021 20:36:54
Eccentricity: 0.0018087
inclination: 82.5282°
perigee height: 606 km
apogee height: 631 km
right ascension of ascending node: 239.0052°
argument of perigee: 216.2587°
revolutions per day: 14.83317387
mean anomaly at epoch: 143.7403°
orbit number at epoch: 81631

The dashed part of the orbit path shows where the satellite is in the earth's shadow,  

DLR